Location: ??????
(38.3184°N, 23.6932°E)
Time: 01:49:26
(UTC+00:00)

Cosmos 1300 - Pass Details

Date: 16 October 2021
Orbit: 509 x 512 km, 82.5° (Epoch: 04 December)

Event Time Altitude Azimuth Distance (km) Brightness Sun altitude
Rises 16:52:04 0° 162° (SSE) 2,610 6.1 -13.7°
Reaches altitude 10° 16:54:23 10° 150° (SSE) 1,729 5.1 -14.2°
Maximum altitude 16:57:39 28° 91° (E) 990 3.5 -14.8°
Enters shadow 16:57:51 28° 85° (E) 994 3.5 -14.9°
Exits shadow 17:02:40 - 22° (NNE) 2,398 5.9 -15.8°
Sets 17:03:24 0° 19° (NNE) 2,687 6.2 -16.0°
